Location: Austin, TX
(30.3000°N, 97.7500°W)
Time: 05:59:42
(UTC-05:00)

Daily predictions for brighter satellites

Satellite Brightness Start Highest point End
(mag) Time Altitude Azimuth Time Altitude Azimuth Time Altitude Azimuth
Cosmos 2278 Rocket 4.4 00:00:55 10° WSW 00:05:01 20° WNW 00:09:07 10° NNW
Cosmos 2369 Rocket 4.1 00:36:42 22° NE 00:36:42 22° NE 00:38:46 10° NE
Mayak 1.5 00:44:03 10° NNE 00:44:50 15° NNE 00:44:50 15° NNE
ATLAS 3B R/B 4.4 00:44:07 10° WNW 00:47:23 20° W 00:47:23 20° W
Cosmos 2082 Rocket 3.7 00:53:34 10° NNW 00:56:41 30° NW 00:56:41 30° NW
Cosmos 1833 Rocket 4.3 00:54:10 10° NW 00:57:01 27° WNW 00:57:01 27° WNW
ATLAS 3B CENTAUR R/B 4.1 00:53:19 10° W 01:01:24 36° WSW 01:01:24 36° WSW
Cosmos 1943 Rocket 3.8 01:11:44 28° NNE 01:11:44 28° NNE 01:14:16 10° NNE
ADEOS Rocket 4.3 01:40:46 10° N 01:45:35 34° WNW 01:45:35 34° WNW
CENTAUR R/B 4.2 01:49:20 10° NW 01:54:32 31° W 01:54:32 31° W
Lacrosse 4 Rocket 4.1 02:11:44 18° NNE 02:11:44 18° NNE 02:12:53 10° NNE
USA 234 3.7 02:02:40 10° NNE 02:08:49 52° NW 02:08:49 52° NW
Cosmos 2369 Rocket 4.2 02:18:27 20° NW 02:18:27 20° NW 02:21:48 10° NNW
Cosmos 1943 Rocket 4.5 02:53:13 13° NW 02:53:13 13° NW 02:55:31 10° NNW
NPP 4.5 02:52:27 10° NNE 02:56:32 47° NE 02:56:32 47° NE
CZ-2D R/B 3.3 02:53:33 10° NNE 02:57:40 37° ENE 02:57:40 37° ENE
Nadezhda 3 Rocket 4.4 03:00:47 54° NW 03:00:47 54° NW 03:06:01 10° N
ARIANE 5 R/B 4.3 02:59:39 10° NE 03:03:07 23° E 03:03:07 23° E
SL-16 R/B 3.4 03:06:35 38° ESE 03:08:03 44° ENE 03:13:51 10° N
ATLAS 2A CENTAUR R/B 4.1 03:08:13 50° SW 03:12:08 62° SSE 03:21:12 10° E
Cosmos 1934 Rocket 4.2 03:07:15 10° N 03:13:29 62° E 03:13:48 61° E
Cosmos 2239 Rocket 4.5 03:09:07 10° N 03:14:53 78° N 03:14:53 78° N
Resurs 1-4 Rocket 2.6 03:11:34 10° NNE 03:16:05 56° ENE 03:16:05 56° ENE
SL-08 R/B 4.3 03:20:49 43° ENE 03:20:49 43° ENE 03:24:53 10° N
Cosmos 841 Rocket 4.2 03:17:57 10° NNW 03:21:36 47° NNW 03:21:36 47° NNW
H-2A R/B 4.1 03:28:54 10° NNE 03:30:59 30° NNE 03:30:59 30° NNE
Cosmos 2221 Rocket 4.5 03:31:56 10° N 03:35:23 48° NNE 03:35:23 48° NNE
UNK 4.3 03:37:42 57° NNE 03:37:42 57° NNE 03:41:29 10° N
Cosmos 2369 4.1 03:39:06 51° ESE 03:39:25 51° ESE 03:44:52 10° NNE
Okean 1-7 4.2 03:35:35 10° N 03:38:19 37° NNW 03:38:19 37° NNW
Cosmos 1980 Rocket 4.3 03:39:54 13° SE 03:42:05 17° E 03:45:29 10° ENE
Cosmos 2219 3.4 03:37:12 10° NNW 03:42:49 68° ENE 03:43:53 55° SE
COSMOS 2455 2.6 03:41:42 10° NNW 03:47:42 80° WSW 03:47:54 79° SW
Spot 4 Rocket 4.0 03:42:50 10° NNE 03:47:59 72° ESE 03:48:04 72° ESE
USA 229 DEB 4.1 03:43:14 10° NNW 03:50:29 68° ENE 03:57:53 10° SE
USA 229 4.1 03:43:21 10° NNW 03:50:36 67° ENE 03:57:59 10° SE
Cosmos 1727 Rocket 3.9 03:52:47 66° S 03:53:46 89° W 04:00:03 10° N
ERS-1 4.4 03:51:15 10° N 03:56:27 80° WNW 03:56:31 80° W
IRS-1D 3.6 03:53:13 10° N 03:57:58 61° WNW 03:57:58 61° WNW
ATLAS CENTAUR R/B 2.9 04:00:46 26° NNW 04:00:46 26° NNW 04:03:07 10° N
Cosmos 1733 Rocket 3.1 04:04:00 74° NE 04:04:00 74° NE 04:08:01 10° N
Cosmos 2297 Rocket 3.6 03:59:24 10° N 04:04:36 37° ENE 04:09:46 10° SE
PKM 4.5 03:58:20 10° NW 04:05:05 68° NE 04:06:28 36° ESE
Cosmos 2278 3.6 04:04:40 62° S 04:05:36 80° ESE 04:11:16 10° NNE
Cosmos 44 Rocket 4.4 04:07:57 32° WNW 04:07:57 32° WNW 04:12:22 10° N
Cosmos 968 Rocket 3.5 04:08:36 60° W 04:08:51 61° WNW 04:14:04 10° N
Meteor 1-27 Rocket 4.1 04:04:36 10° NNW 04:10:12 48° W 04:10:17 48° W
Cosmos 2227 Rocket 3.0 04:08:08 10° N 04:13:38 50° ENE 04:19:06 10° SE
Cosmos 1271 Rocket 4.4 04:13:18 25° ESE 04:14:26 29° E 04:17:51 10° NNE
Shenzhou-11 Module 4.1 04:15:44 27° NNE 04:15:44 27° NNE 04:17:21 10° NE
CBERS 1 LM4 rocket 4.2 04:10:37 10° NNE 04:15:32 88° ESE 04:16:15 65° S
Gbstr 26 Del rocket 2.9 04:17:40 65° ENE 04:17:40 65° ENE 04:21:03 10° NE
Cosmos 1656 3.7 04:16:23 55° WSW 04:17:26 67° WNW 04:23:05 10° NNE
ADEOS II 2.6 04:15:44 10° NNE 04:20:53 54° E 04:23:13 31° SSE
Cosmos 1674 Rocket 4.3 04:17:33 10° N 04:21:45 49° E 04:23:45 27° SE
Meteosat 1 Rocket2 3.6 04:21:25 52° S 04:21:47 53° S 04:26:05 10° E
Cosmos 1908 Rocket 4.3 04:22:06 34° SSE 04:23:38 50° E 04:27:56 10° NNE
Cosmos 389 Rocket 3.9 04:27:14 30° NW 04:27:14 30° NW 04:29:36 10° N
Cosmos 374 Rocket 4.2 04:21:56 10° NNW 04:26:14 86° WSW 04:26:34 74° SSE
CZ-2D R/B 3.3 04:28:09 10° N 04:32:17 66° WNW 04:32:37 62° WSW
Helios 1A Rocket 2.8 04:31:22 10° N 04:35:24 75° WNW 04:35:58 62° SW
Okean 1 4.3 04:33:15 10° N 04:37:03 43° E 04:40:02 15° SSE
Meteor 1-20 Rocket 4.2 04:35:09 40° SSW 04:37:09 68° W 04:42:52 10° N
GPS 2-04 Rocket1 4.0 04:35:41 20° WNW 04:38:02 38° N 04:41:53 10° ENE
CZ-2D R/B 3.7 04:34:30 10° NNW 04:38:17 20° WNW 04:38:59 19° W
Delta 2 Rocket 3.8 04:35:55 22° WNW 04:38:38 67° NNE 04:43:24 10° E
Cosmos 1802 Rocket 4.3 04:34:54 10° N 04:41:04 65° E 04:47:08 10° SSE
UNKNOWN OBJECT B 3.1 04:38:25 10° N 04:42:19 49° WNW 04:42:47 46° W
ARIANE 5 R/B 3.5 04:38:20 10° NNW 04:42:37 29° WNW 04:43:28 28° W
Cosmos 192 4.4 04:38:34 10° NNW 04:43:33 81° ENE 04:48:29 10° SSE
SAR-Lupe-2 3.4 04:44:37 55° S 04:45:19 78° WSW 04:48:54 10° NNW
Tiangong 2 3.0 04:46:24 21° SE 04:46:26 21° SE 04:48:55 10° E
Cosmos 2082 3.7 04:45:16 10° NNW 04:50:55 80° ENE 04:56:31 10° SSE
SL-16 R/B 3.7 04:51:41 22° W 04:51:44 22° W 04:56:22 10° NW
Cosmos 2061 Rocket 4.1 04:45:50 10° N 04:52:06 81° E 04:58:25 10° S
Cosmos 2322 Rocket 4.3 04:49:30 10° SSE 04:53:35 21° E 04:57:39 10° NE
Cosmos 1459 Rocket 4.0 04:48:03 10° N 04:54:26 79° W 05:00:31 11° S
PSLV R/B 2.7 04:55:32 66° WNW 04:55:52 82° SSW 04:58:48 10° SE
Resurs 1-4 Rocket 4.1 04:53:54 10° NW 04:56:03 13° WNW 04:57:10 12° WNW
Cosmos 1697 Rocket 3.1 04:55:20 29° WSW 04:57:46 46° WNW 05:03:12 10° N
Cosmos 2360 4.2 04:55:22 26° SSW 04:58:45 87° WNW 05:04:29 10° NNE
BREEZE-M DEB (TANK) 4.5 04:57:52 16° S 05:00:52 38° ESE 05:12:09 10° NE
Cosmos 1812 4.2 04:58:30 10° NW 05:00:56 21° WNW 05:00:56 21° WNW
Cosmos 2100 Rocket 4.0 04:57:36 10° NNW 05:03:41 59° W 05:09:05 14° SSW
NOSS 3-1 (C) 4.1 04:56:58 10° NW 05:04:53 67° WSW 05:13:27 10° SSE
Cosmos 1602 3.8 05:03:53 33° SSW 05:05:22 57° W 05:09:09 10° N
Okean 3 3.9 05:03:03 10° NNW 05:07:00 41° W 05:08:45 27° SW
Lacrosse 5 rocket 1.4 05:05:21 30° SW 05:07:26 83° NW 05:11:58 10° NE
PSLV R/B 3.9 05:03:12 10° NNE 05:07:34 66° ESE 05:11:23 13° S
Okean O Rocket 3.9 05:08:04 10° NE 05:11:31 22° E 05:14:57 10° SSE
SL-8 R/B 4.0 05:08:08 10° WNW 05:12:40 42° SW 05:17:10 10° SSE
Meteor 1-18 Rocket 4.4 05:10:57 10° NNW 05:16:19 49° W 05:21:31 11° SSW
Sich 1 Rocket 3.8 05:15:32 21° SSW 05:18:15 50° W 05:22:33 10° N
Cosmos 2123 Rocket 4.1 05:18:30 13° SSW 05:23:55 59° W 05:30:01 10° N
SL-16 R/B 3.2 05:19:02 10° S 05:24:22 45° ESE 05:29:44 10° NE
GPS 2-12 Rocket1 4.4 05:23:06 18° SSW 05:24:51 22° S 05:28:30 10° SE
Cosmos 1980 Rocket 2.6 05:21:42 18° SW 05:25:33 48° WNW 05:31:00 10° N
Okean 2 Rocket 3.1 05:22:26 10° S 05:26:50 87° E 05:31:17 10° N
ATLAS 2A CENTAUR R/B 3.0 05:15:38 10° W 05:28:18 70° S 05:33:51 10° E
GEOS 3 Rocket 4.2 05:24:50 10° NE 05:29:59 55° ESE 05:34:59 10° SSW
Milstar 3 Cent rocket 3.7 05:13:53 10° W 05:30:29 79° S 05:37:56 10° ESE
Meteor 1-19 Rocket 4.1 05:26:14 10° N 05:31:44 78° W 05:37:14 10° S
Cosmos 909 Rocket 4.5 05:23:38 11° SSW 05:31:48 87° WNW 05:38:38 10° NNE
Cosmos 1378 Rocket 4.5 05:33:57 10° NNW 05:37:50 30° W 05:41:42 10° SSW
Iridium 51 4.1 05:34:24 10° N 05:38:04 76° W 05:42:03 10° S
Meteor 1-13 Rocket 4.2 05:33:03 10° N 05:38:37 90° E 05:44:07 10° S
Cosmos 1782 Rocket 4.4 05:35:44 14° SW 05:38:59 33° W 05:42:56 10° NNW
Atlas Centaur 2 1.7 05:37:34 15° SW 05:40:33 52° SSE 05:45:04 10° E
CZ-4B R/B 4.2 05:36:06 10° NNE 05:41:19 46° E 05:46:34 10° S
NOSS 2-1 (C) 4.3 05:39:00 14° WSW 05:41:31 28° NW 05:44:47 10° N
NOSS 3-1 (A) 4.3 05:34:39 10° NW 05:42:27 54° WSW 05:50:48 10° S
NOSS 2-1 (D) 4.4 05:40:20 13° WSW 05:42:52 27° NW 05:46:05 10° N
Meteor 1-11 Rocket 3.9 05:42:55 10° SSW 05:48:16 52° W 05:53:43 10° N
Cosmos 2297 Rocket 3.3 05:44:04 10° NW 05:48:19 22° W 05:52:34 10° SSW
Cosmos 1538 Rocket 4.4 05:43:36 10° NNW 05:48:39 44° W 05:53:40 10° S
NOSS 3-3 (A) 3.9 05:43:55 10° SSW 05:49:49 85° WNW 05:56:12 10° NNE
NOSS 3-3 (C) 3.9 05:44:04 10° SSW 05:49:58 85° WNW 05:56:21 10° NNE
ATLAS CENTAUR Rocket 3.1 05:48:32 10° W 05:52:57 72° S 06:13:11 10° E
Meteor 2-4 Rocket 3.7 05:47:41 10° NNW 05:53:29 74° W 05:59:05 10° S
Aureole 2 Rocket 2.1 05:50:44 10° SSW 05:53:58 87° ESE 05:56:59 10° NNE
Cosmos 923 Rocket 4.1 05:49:28 10° NNW 05:54:44 84° ENE 06:00:00 10° SSE
Lacrosse 5 1.8 05:50:01 10° NW 05:55:02 68° SW 06:00:03 10° SSE
Cosmos 2227 Rocket 3.7 05:53:49 10° WNW 05:57:09 16° W 06:00:29 10° SW
Cosmos 1898 Rocket 3.6 05:53:13 10° SSW 05:58:26 90° W 06:03:44 10° NNE
ADEOS II 3.9 05:57:21 10° NW 06:00:04 14° WNW 06:02:45 10° W
Centaur D AC-28 3.7 05:57:50 10° WSW 06:00:46 14° SW 06:03:00 10° S
Cosmos 1515 4.1 05:57:30 10° N 06:01:17 69° E 06:05:03 10° SSE
USA 161 3.8 06:01:14 10° SE 06:02:53 22° ENE 06:04:41 10° NNE
PSLV R/B 4.4 05:59:25 10° N 06:03:18 42° WNW 06:07:11 10° SW
Cosmos 1356 Rocket 4.2 06:00:49 10° N 06:04:43 53° E 06:08:36 10° SSE
Cosmos 2151 Rocket 3.7 06:01:01 10° SSW 06:05:25 61° W 06:09:49 10° N
CZ-3 R/B 3.0 05:54:42 10° WSW 06:16:46 56° S 06:22:36 10° E
